TimeEDT,TemperatureF,Dew PointF,Humidity,Sea Level PressureIn,VisibilityMPH,Wind Direction,Wind SpeedMPH,Gust SpeedMPH,PrecipitationIn,Events,Conditions,WindDirDegrees,DateUTC
12:51 AM,68.0,64.9,90,30.09,9.0,NNE,5.8,-,N/A,,Clear,30,2012-10-26 04:51:00
1:51 AM,68.0,64.9,90,30.06,10.0,Variable,5.8,-,N/A,,Clear,0,2012-10-26 05:51:00
2:51 AM,70.0,66.0,87,30.04,10.0,NNE,5.8,-,N/A,,Mostly Cloudy,30,2012-10-26 06:51:00
3:51 AM,70.0,66.9,90,30.02,8.0,NE,4.6,-,N/A,,Clear,40,2012-10-26 07:51:00
4:51 AM,70.0,66.9,90,30.03,9.0,NE,6.9,-,N/A,,Partly Cloudy,40,2012-10-26 08:51:00
5:51 AM,70.0,66.9,90,30.03,9.0,NE,6.9,-,N/A,,Clear,40,2012-10-26 09:51:00
6:51 AM,70.0,66.9,90,30.02,9.0,NE,6.9,-,N/A,,Clear,40,2012-10-26 10:51:00
7:51 AM,71.1,66.9,87,30.02,9.0,NE,5.8,-,N/A,,Clear,40,2012-10-26 11:51:00
8:51 AM,72.0,68.0,87,30.03,10.0,NE,5.8,-,N/A,,Clear,40,2012-10-26 12:51:00
9:51 AM,73.9,68.0,82,30.03,10.0,NNE,8.1,-,N/A,,Clear,30,2012-10-26 13:51:00
10:51 AM,75.0,68.0,79,30.02,10.0,NE,9.2,16.1,N/A,,Mostly Cloudy,40,2012-10-26 14:51:00
11:51 AM,75.0,68.0,79,30.01,10.0,NNE,10.4,17.3,N/A,,Partly Cloudy,30,2012-10-26 15:51:00
12:09 PM,71.6,66.2,83,30.02,2.5,ENE,9.2,18.4,0.00,Rain,Light Rain,60,2012-10-26 16:09:00
12:11 PM,71.6,66.2,83,30.01,1.2,ENE,6.9,-,0.01,Rain,Heavy Rain,60,2012-10-26 16:11:00
12:20 PM,71.6,68.0,88,30.01,1.5,ENE,6.9,-,0.19,Rain,Light Rain,60,2012-10-26 16:20:00
12:22 PM,71.6,68.0,88,30.00,3.0,ENE,4.6,-,0.19,Rain,Light Rain,60,2012-10-26 16:22:00
12:34 PM,71.6,69.8,94,29.99,4.0,NNE,4.6,-,0.20,Rain,Rain,30,2012-10-26 16:34:00
12:51 PM,72.0,69.1,91,29.99,10.0,NNE,4.6,-,0.21,,Overcast,20,2012-10-26 16:51:00
1:51 PM,70.0,66.0,87,29.96,10.0,NNE,8.1,-,0.03,,Overcast,30,2012-10-26 17:51:00
2:51 PM,71.1,68.0,90,29.93,10.0,NE,10.4,17.3,0.00,,Mostly Cloudy,40,2012-10-26 18:51:00
3:51 PM,70.0,66.9,90,29.91,10.0,NNE,11.5,24.2,N/A,,Partly Cloudy,30,2012-10-26 19:51:00
4:51 PM,72.0,68.0,87,29.90,10.0,ENE,6.9,-,N/A,,Mostly Cloudy,60,2012-10-26 20:51:00
5:51 PM,72.0,66.0,81,29.90,10.0,ENE,9.2,-,N/A,,Overcast,60,2012-10-26 21:51:00
6:51 PM,72.0,64.0,76,29.91,10.0,East,11.5,18.4,N/A,,Mostly Cloudy,80,2012-10-26 22:51:00
7:51 PM,73.0,64.0,73,29.90,10.0,East,11.5,18.4,N/A,,Partly Cloudy,80,2012-10-26 23:51:00
8:51 PM,73.0,63.0,71,29.89,10.0,East,12.7,19.6,N/A,,Scattered Clouds,80,2012-10-27 00:51:00
9:51 PM,72.0,63.0,73,29.87,10.0,ENE,11.5,18.4,N/A,,Partly Cloudy,70,2012-10-27 01:51:00
10:51 PM,73.0,63.0,71,29.86,10.0,ENE,13.8,21.9,N/A,,Partly Cloudy,70,2012-10-27 02:51:00
11:51 PM,72.0,64.0,76,29.84,10.0,ENE,9.2,-,N/A,,Scattered Clouds,70,2012-10-27 03:51:00